Location: Pine Mountain Observatory
(43.7910°N, 120.9377°W)
Time: 10:49:59
(UTC-07:00)

Vanguard 1 Rocket - Pass Details

Date: 26 May 2019
Orbit: 652 x 4224 km, 34.3° (Epoch: 19 June)

Event Time Altitude Azimuth Distance (km) Brightness Sun altitude
Exits shadow 02:36:10 29° 157° (SSE) 1,573 8.2 -21.5°
Drops below altitude 10° 02:42:05 10° 104° (ESE) 3,254 10.3 -21.1°
Sets 02:46:16 0° 95° (E) 4,775 11.4 -20.7°
